sat.trackr.live / text

‹ back to catalog

HULIANWANG DIGUI-67

NORAD 65173 · 2025-174K

PAYLOAD ACTIVE UNKNOWN

§ Identity

Operator
Country
PRC
Launch date
2025-08-13
Launch site
WSC
Launch vehicle
Mass (kg)
RCS (m²)

External: N2YO · Heavens-Above · Gunter

§ Orbital elements

Epoch: 2026-09-21T21:15:04.614912Z

Period
108.73 min
Inclination
86.4957°
Eccentricity
0.0002206
Mean motion
13.24401273 rev/d
Perigee alt
1,166.3 km
Apogee alt
1,169.6 km
Semi-major
7,546.1 km
B*
6.1899e-5
RAAN
219.2803°
Arg perigee
76.0946°
Mean anomaly
284.0434°
Rev number
5,355

§ Raw data

HULIANWANG DIGUI-671 65173U 25174K   26264.88547008  .00000041  00000+0  61899-4 0  99922 65173  86.4957 219.2803 0002206  76.0946 284.0434 13.24401273 53550

JSON: /api/v1/satellites/65173 · /tle

For live sub-satellite position, see the globe view (requires WebGL).

§ Visibility from observer

Set your observer location to see the next 7 days of passes ≥ 10°. The values pass through the URL so the page stays shareable.

No JS? Fill the form by hand. The geolocation button needs JavaScript.